{"data":{"norad_id":62201,"intl_designator":"2024-229K","name":"STARLINK-32667","alt_names":[],"object_type":"PAYLOAD","status":"ACTIVE","operator":null,"country":"US","launch_date":"2024-12-04","launch_site_code":"AFETR","launch_vehicle":null,"mission":null,"orbit_class":"UNKNOWN","rcs_meters":null,"size_class":null,"mass_kg":null,"dimensions":null,"purposes":["comms"],"wikipedia_slug":null,"has_3d_model":false,"image_url":null,"decayed_at":null,"tle_current":{"epoch":"2026-09-21T09:03:27.406656Z","epoch_age_seconds":101553,"freshness":"FRESH","line1":"1 62201U 24229K   26264.37740054  .00009859  00000+0  36715-3 0  9995","line2":"2 62201  43.0013 245.1982 0001576 268.7981  91.2690 15.27594118100499","mean_motion":15.27594118,"eccentricity":0.0001576,"inclination_deg":43.0013,"raan_deg":245.1982,"arg_perigee_deg":268.7981,"mean_anomaly_deg":91.269,"bstar":0.00036715,"rev_number":10049,"period_min":94.265877501893,"perigee_km":481.92550572797,"apogee_km":484.08813826066,"semimajor_km":6861.1438219943,"source":"CELESTRAK","updated_at":"2026-09-22T09:00:49.540714Z"}}}